Weather in Tavrovo-6

Russia / Belgorod Oblast     50°30′13″N   36°32′51″E
temp.,
°C
wind,
m/s
gust,
m/s
humid.,
%
clouds,
%
prec.,
mm/h
press.,
hPa
HPBL,
m
17 june, thu
thu1700:00+17nne36940 0.0 101496
03:00+16ne41097100 0.0 1015207
06:00+17ne512965 0.0 1015344
09:00+21ene6108397 0.0 1016585
12:00+24ene7872100 0.1 10171368
15:00+24ne8107713 0.3 10171100
18:00+22ne712824 1.4 1018756
21:00+19ne614884 1.4 1019530
18 june, fri
fri1800:00+18ne715881 0.0 1020579
03:00+16ene614820 0.0 1020454
06:00+16ene614870 0.0 1021525
09:00+19e710750 0.0 1022705
12:00+22e78669 0.0 10231327
15:00+23ene78641 0.0 10221394
18:00+22ene58730 0.0 10221007
21:00+17ene411900 0.0 1023265
19 june, sat
sat1900:00+16ene412885 0.0 1023303
03:00+15ene511936 0.0 1023278
06:00+15ene513879 0.0 1023365
09:00+19e7127243 0.0 1023604
12:00+22e8116513 0.0 1023968
15:00+24e796599 0.0 10221152
18:00+23e697434 0.0 1022888
21:00+18e411916 0.0 1022258
20 june, sun
sun2000:00+16ene411915 0.0 1022224
03:00+15ene4118499 0.0 1022217
06:00+16ene5128179 0.0 1022286
09:00+20e6116970 0.0 1022464
12:00+23e710595 0.0 1021811
15:00+25e796054 0.0 1020991
18:00+23e6117299 0.0 1019727
21:00+19ene41188100 0.0 1019247
21 june, mon
mon2100:00+18ene5138380 0.0 1018273
03:00+19ene5137589 0.0 1017311
06:00+17ene5118362 0.0 1017236
09:00+23e6106813 0.0 1017377
12:00+27ese7115645 0.0 1017842
15:00+28ese7126153 0.0 10171186
18:00+25e5117079 0.0 1017415
21:00+21ene5138585 0.0 1017262